Volver al catálogo

CZ-6A DEB

ActivoPO
NORAD 60878·DEBRIS·🇨🇳 China

Lanzado Aug 6, 2024 desde Taiyuan Satellite Launch Center

Loading…

Próximos Pases (próximas 24 horas)

TLE

ActualizadoSource: Space-Track

Época: Sep 14, 2026, 10:32 UTC

1 60878U 24140KH  26257.43903018  .00036664  00000-0  15627-2 0  9998
2 60878  89.0548 260.7969 0068847 132.9707 227.7340 15.20612919113125

Sigue CZ-6A DEB en tiempo real con AllMySat

Download on the App Store